Find Starlink 36886

NORAD ID: 68175 Int'l Des: 2026-050 Owner: SPXS Country: US Constellation: starlink operational
LEOCIRCULAR

Live Position

Loading 3D Globe...

About Starlink 36886

Description loading...

Upcoming Passes

Passes for default location (London). Set your location on the main map for personalized predictions.

Altitude History

Loading altitude history...

Two-Line Element Set

1 68175U 26050J 26112.00002315 -.00000722 00000-0 -67740-5 0 9995
2 68175 53.1604 67.0512 0001502 91.9273 259.7444 15.43216086 6050
Epoch: Apr 22, 2026 • Age: 17 hours

Current Status

Altitude 441.9 km
Velocity 7.65 km/s
Sub-Earth Point 51.88°N, 22.42°E
Launch Date Mar 14, 2026
Age 0.1 years
Type internet

Technical Details

Classification Payload
Mass 575.00 kg
Dry Mass 530.00 kg
Total Mass 575.00 kg
Length 0.30 m
Diameter 4.10 m
Span 29.00 m
Shape Box + pan
Manufacturer SPXS
Bus Type Starlink V2MO
Phase Status In Orbit
Owner/State SPXS/US

Most Searched